Вернуться в каталог

STARLINK-5161

АктивенСвязьVLEO
NORAD 54163·PAYLOAD·🇺🇸 United States

Запущен Oct 28, 2022 с Vandenberg Space Force Base

Loading…

Ближайшие Пролёты (ближайшие 24 часа)

TLE

СвежийSource: CelesTrak SupGP

Эпоха: Sep 15, 2026, 02:25 UTC

1 54163C 22141G   26258.10118056 -.00029303  00000+0 -86601-3 0  2584
2 54163  53.1584 218.9561 0001336  86.9267 330.8107 15.34395533    14

Отслеживайте STARLINK-5161 в реальном времени с AllMySat

Download on the App Store